< < Back
Terminal Aerodrome Forecast


Current Version              Previous Versions:   1  2  3  4  5  6  7  8  9  

Terminal Aerodrome Forecast

336
FTUS42 KILM 251700
TAFFLO
TAF
KFLO 251721Z 2518/2618 18009KT P6SM SKC
     FM252200 18006KT P6SM FEW120 SCT250
     FM260800 21006KT 6SM BR BKN035 BKN090
     FM261400 26012G19KT P6SM SCT015 SCT050=



Latest METAR

732
SAUS70 KWBC 262200 RRE
MTRFLO
METAR KFLO 262153Z 33008KT 10SM FEW046 BKN060 OVC085 12/04 A2963 RMK AO2
SLP032 T01170039


USA.gov is the U.S. government's official web portal to all federal, state and local government web resources and services.